Acatitlan, Mexico

2:29 PM CDT on August 21, 2017 (GMT -0500)
Lic Gustavo Diaz Ordaz International | | Change Station

Elev 20 ft 20.68 °N, 105.25 °W | Updated 43 minutes ago

Clear
Clear
88 °F
Feels Like 100 °F
N
7
Wind Variable Wind from SW

Today
High -- | Low -- °F
--% Chance of Precip.
Yesterday
High -- | Low -- °F
Precip. -- in
Pressure 29.87 in
Visibility 15.0 miles
Clouds Scattered Clouds 10000 ft
Heat Index 100 °F
Dew Point 77 °F
Humidity 70%
Rainfall 0.00 in
Snow Depth Not available.
7:39 AM 8:22 PM
New Moon, 0% visible
METAR MMPR 211846Z 22006KT 15SM SCT100 31/25 A2987 RMK 8/030 TCU NW AND SE
Pressure 29.87 in
Visibility 15.0 miles
Clouds Scattered Clouds 10000 ft
Heat Index 100 °F
Dew Point 77 °F
Humidity 70%
Rainfall 0.00 in
Snow Depth Not available.
7:39 AM 8:22 PM
New Moon, 0% visible
METAR MMPR 211846Z 22006KT 15SM SCT100 31/25 A2987 RMK 8/030 TCU NW AND SE

Get Severe Weather Alerts

Thanks for signing up!

Be on the lookout for a verification email in your inbox.

You'll start receiving the daily forecast at 6 AM.

×

10-Day Weather Forecast

No radar image for this location.
×

Almanac

Astronomy

Aug. 21, 2017 Rise Set
Actual Time
Civil Twilight
Nautical Twilight
Astronomical Twilight
Moon
Length of Visible Light
Length of Day
Tomorrow will be .
, % of the Moon is Illuminated

Today's Extremes

Country Highs Country Lows

Community

WunderPhotos

Category 6

Welcome to Category 6. This is the collective home for Weather Underground's featured writeups by Dr. Jeff Masters (right), Bob Henson (left), Chris Burt, and other regular contributors.

Nearby

Air Quality

  Air Quality AQ Index Pollutant
Not available.

Snow Depth

Station Depth Elevation

Earthquake Activity

City Distance Mag. Time & Date
Minimum magnitude displayed is 2.5.

Coastal Water Temperatures

Place Temperature

Stations

Nearby Weather Stations

Station Location Temp. Windchill Dew Point Humidity Wind Precip. Elev Updated Type